Find Kosmos-2523

NORAD ID: 42986 Int'l Des: 2017-037 Owner: VVKOV Country: RU operational
LEOCIRCULARRETROGRADESSO

リアルタイム位置

3D地球を読み込み中...

Kosmos-2523について

説明を読み込み中...

次回通過

Passes for default location (London). Set your location on the main map for personalized predictions.

高度履歴

Loading altitude history...

軌道要素

1 42986U 17037E 26104.49647260 .00000928 00000-0 85626-4 0 9998
2 42986 97.5031 120.3194 0068671 83.6653 277.2383 14.95214827459446
Epoch: Apr 14, 2026 • Age: 6 hours

現在のステータス

高度 570.2 km
速度 7.58 km/s
衛星直下点 9.08°N, 0.74°E
打ち上げ日 Jun 23, 2017
運用期間 8.8 years
タイプ other

技術仕様

分類 Payload
質量 47.00 kg
乾燥質量 47.00 kg
総質量 47.00 kg
長さ 0.40 m
直径 0.20 m
スパン 0.40 m
形状 Box
製造者 TSKHM
バスタイプ Naprazheniye
フェーズステータス In Orbit
所有者/国 VVKOV/RU

Most Searched